Tracking 29487 objects as of 10-Sep-2024
HD Live streaming from Space Station
objects crossing your sky now

SITRO-AIS-11

Track SITRO-AIS-11 now!
10-day predictions
SITRO-AIS-11 is classified as:


NORAD ID: 57208
Int'l Code: 2023-091AU
Perigee: 524.1 km
Apogee: 541.1 km
Inclination: 97.6 °
Period: 95.1 minutes
Semi major axis: 6903 km
RCS: Unknown
Launch date: June 27, 2023
Source: (TBD)
Launch site: VOSTOCHNY COSMODROME (VOSTO)

Uplink (MHz):
Downlink (MHz): 437.050
Beacon (MHz):
Mode: 1145baudAFSK
Call sign: RS41S
Status: Unknown


Uplink (MHz):
Downlink (MHz): 401.320
Beacon (MHz):
Mode: 2k4 GMSK_USP
Call sign: SC2213
Status: Active


Uplink (MHz):
Downlink (MHz): 436.260
Beacon (MHz):
Mode: LoRa
Call sign: RS52SD
Status: Unknown

Your satellite tracking list
Your tracking list is empty




NASA's NSSDC Master Catalog

Two Line Element Set (TLE):
1 57208U 23091AU  24254.19975953  .00026523  00000-0  14774-2 0  9995
2 57208  97.6050 307.2090 0012288 167.3408 192.8134 15.13525380 66410
Source of the keplerian elements: AFSPC